Location: Mauries
(43.6188°N, 0.3322°W)
Time: 20:00:02
(UTC+00:00)

Timation 2 Rocket - Pass Details

Date: 14 January 2026
Orbit: 906 x 1072 km, 70.0° (Epoch: 11 February)

Event Time Altitude Azimuth Distance (km) Brightness Sun altitude
Rises 06:15:37 0° 212° (SSW) 3,800 6.9 -13.6°
Reaches altitude 10° 06:18:16 10° 215° (SW) 2,831 6.2 -13.1°
Maximum altitude 06:24:53 70° 298° (WNW) 1,069 4.0 -12.0°
Drops below altitude 10° 06:31:15 10° 23° (NNE) 2,731 6.4 -10.9°
Sets 06:33:47 0° 26° (NNE) 3,658 7.1 -10.5°
